Location: Fort Worth, Tx
(32.7431°N, 97.3695°W)
Time: 18:45:34
(UTC-04:00)

ISS - Visible Passes

Search period start: 28 May 2022 00:00
Search period end: 07 June 2022 00:00
Orbit: 414 x 421 km, 51.6° (Epoch: 28 May)

Date Brightness Start Highest point End Pass type
(mag) Time Alt. Az. Time Alt. Az. Time Alt. Az.
29 May -0.9 00:24:57 10° NW 00:26:01 19° NNW 00:26:01 19° NNW visible
29 May -2.2 23:37:01 10° NNW 23:39:38 30° NNE 23:39:38 30° NNE visible
30 May -1.7 22:49:17 10° NNW 22:51:45 19° NE 22:53:16 14° ENE visible
31 May -0.8 00:25:30 10° WNW 00:26:10 14° WNW 00:26:10 14° WNW visible
31 May -1.2 22:01:54 10° N 22:03:22 12° NNE 22:04:49 10° NE visible
31 May -3.1 23:37:08 10° NW 23:39:50 54° WNW 23:39:50 54° WNW visible
01 Jun -3.4 22:48:58 10° NW 22:52:15 54° NE 22:53:33 31° ESE visible
02 Jun -2.4 22:00:59 10° NNW 22:03:57 29° NE 22:06:56 10° E visible
02 Jun -1.6 23:38:05 10° W 23:40:13 19° WSW 23:40:13 19° WSW visible
03 Jun -2.8 22:49:18 10° WNW 22:52:26 38° SW 22:54:01 23° S visible
04 Jun -3.7 22:00:53 10° NW 22:04:14 80° SW 22:07:33 10° SE visible
05 Jun -1.0 22:51:23 10° WSW 22:52:18 11° SW 22:53:13 10° SW visible
06 Jun -1.6 22:01:35 10° WNW 22:04:10 21° SW 22:06:45 10° S visible
